Flag for Indonesia Weather past 2 weeks in Medan, North Sumatra, Indonesia

Now
86 °F

Passing clouds.


Feels Like: 93 °F
Forecast: 77 / 84 °F
Wind: 10 mph from East

Location: Medan / Polonia

Current Time: Sep 22, 2014 at 12:27:16 PM

Latest Report: Sep 22, 2014 at 11:30 AM


Visibility: 4 mi

Pressure: 29.83 "Hg

Humidity: 66%

Dew point: 73 °F

Location of MedanLocation

Historic Weather in Medan — Graph

°F

Medan temperature yesterday

Maximum temperature yesterday: 86 °F (at 12:30 PM)
Minimum temperature yesterday: 72 °F (at 6:00 AM)
Average temperature yesterday: 78 °F

Past Weeks' High & Low Weather Summary

 TemperatureHumidityPressure
High91 °F (Sep 17, 2:30 PM)100% (Sep 8, 3:00 AM)29.95 "Hg (Sep 8, 3:00 AM)
Low72 °F (Sep 21, 6:00 AM)52% (Sep 18, 1:30 PM)29.62 "Hg (Sep 16, 4:30 PM)
Average81 °F85%29.81 "Hg
* Reported Sep 7 11:30 AM — Sep 22 11:00 AM, Medan, Weather by CustomWeather, © 2014

Note: Actual official high and low records may vary slightly from our data, if they occured in-between our weather recording intervals... More about our weather records

Advertising

Medan weather history for previous 24 hours

 ConditionsComfort  
Time TempWeatherWind HumidityBarometerVisibility
11:00 AM
Sep 22
86 °FPassing clouds.10 mph62%29.86 "Hg4 mi
10:30 AM86 °FPassing clouds.7 mph66%29.86 "Hg5 mi
10:00 AM84 °FPassing clouds.6 mph74%29.86 "Hg5 mi
9:30 AM82 °FPassing clouds.7 mph74%29.86 "Hg5 mi
9:00 AM81 °FPassing clouds.3 mph79%29.86 "Hg4 mi
8:30 AM79 °FPassing clouds.No wind89%29.86 "Hg4 mi
8:00 AM77 °FPassing clouds.No wind94%29.83 "Hg4 mi
7:00 AM75 °FPassing clouds.No wind94%29.83 "Hg2 mi
6:30 AM73 °FPassing clouds.No wind100%29.83 "Hg2 mi
6:00 AM73 °FPassing clouds.No wind100%29.83 "Hg3 mi
5:30 AM75 °FPassing clouds.No wind94%29.83 "Hg4 mi
5:00 AM75 °FPassing clouds.No wind94%29.83 "Hg4 mi
4:30 AM75 °FPassing clouds.No wind94%29.83 "Hg4 mi
4:00 AM75 °FPassing clouds.No wind94%29.83 "Hg4 mi
2:30 AM75 °FPassing clouds.3 mph100%29.83 "HgN/A
2:00 AM75 °FPassing clouds.No wind94%29.83 "Hg4 mi
1:30 AM75 °FMild.3 mph100%29.86 "Hg4 mi
1:00 AM75 °FPassing clouds.3 mph94%29.86 "Hg4 mi
12:30 AM75 °FPassing clouds.2 mph100%29.86 "Hg5 mi
12:00 AM77 °FPassing clouds.5 mph89%29.89 "Hg5 mi
11:30 PM
Sep 21
77 °FPassing clouds.5 mph89%29.89 "Hg5 mi
11:00 PM77 °FPassing clouds.5 mph89%29.92 "Hg5 mi
10:30 PM75 °FPassing clouds.3 mph94%29.92 "Hg5 mi
10:00 PM75 °FPassing clouds.5 mph94%29.92 "Hg5 mi
9:30 PM75 °FPassing clouds.5 mph94%29.92 "Hg5 mi
9:00 PM75 °FPassing clouds.7 mph94%29.89 "Hg5 mi
8:30 PM77 °FPassing clouds.7 mph94%29.89 "Hg5 mi
8:00 PM77 °FPassing clouds.7 mph89%29.86 "HgN/A
7:30 PM77 °FPassing clouds.6 mph94%29.86 "HgN/A
7:00 PM77 °FPassing clouds.7 mph94%29.86 "Hg3 mi
6:30 PM77 °FPassing clouds.7 mph100%29.86 "Hg3 mi
6:00 PM79 °FLight rain. Partly sunny.10 mph94%29.83 "Hg3 mi
5:30 PM82 °FLight rain. Partly sunny.3 mph84%29.83 "Hg3 mi
5:00 PM82 °FLight rain. Partly sunny.2 mph79%29.80 "Hg2 mi
4:00 PM84 °FScattered clouds.9 mph74%29.80 "Hg4 mi
3:30 PM86 °FScattered clouds.9 mph70%29.80 "Hg4 mi
3:00 PM86 °FScattered clouds.8 mph70%29.80 "Hg4 mi
2:30 PM86 °FScattered clouds.6 mph75%29.80 "Hg4 mi
2:00 PM86 °FScattered clouds.6 mph75%29.83 "Hg4 mi
1:30 PM86 °FScattered clouds.5 mph70%29.83 "Hg5 mi
1:00 PM86 °FScattered clouds.5 mph75%29.86 "Hg5 mi
12:30 PM86 °FScattered clouds.3 mph70%29.86 "Hg5 mi
12:00 PM84 °FScattered clouds.2 mph74%29.89 "Hg5 mi
Weather by CustomWeather, © 2014

See weather overviewHow to use our weather pages